{"data":{"norad_id":64024,"epoch":"2026-05-25T02:56:52.117152Z","epoch_age_seconds":58210,"freshness":"FRESH","line1":"1 64024U 25102C   26145.12282543  .00003700  00000+0  31768-3 0  9998","line2":"2 64024  70.0002 281.6342 0002841 269.5764  90.5069 14.98336680 57297","mean_motion":14.9833668,"eccentricity":0.0002841,"inclination_deg":70.0002,"raan_deg":281.6342,"arg_perigee_deg":269.5764,"mean_anomaly_deg":90.5069,"bstar":0.00031768,"rev_number":5729,"period_min":96.106570654067,"perigee_km":570.06068974061,"apogee_km":574.00977760378,"semimajor_km":6950.1722336722,"source":"CELESTRAK","updated_at":"2026-05-25T13:38:20.224485Z"}}